Flag for Tunisia Weather past 2 weeks in Sfax, Tunisia

Now
75 °F

Passing clouds.


Feels Like: 75 °F
Forecast: 79 / 90 °F
Wind: 5 mph from North

Location: Sfax El-Maou

Current Time: Aug 23, 2014 at 6:52:33 AM

Latest Report: Aug 23, 2014 at 5:00 AM


Visibility: 5 mi

Pressure: 29.92 "Hg

Humidity: 89%

Dew point: 72 °F

Location of SfaxLocation

Historic Weather in Sfax — Graph

°F

Sfax temperature yesterday

Maximum temperature yesterday: 90 °F (at 3:00 PM)
Minimum temperature yesterday: 77 °F (at 6:00 AM)
Average temperature yesterday: 83 °F

Past Weeks' High & Low Weather Summary

 TemperatureHumidityPressure
High97 °F (Aug 13, 12:00 PM)94% (Aug 11, 6:00 AM)30.09 "Hg (Aug 11, 6:00 AM)
Low68 °F (Aug 8, 6:00 AM)32% (Aug 13, 5:00 PM)29.74 "Hg (Aug 13, 6:00 PM)
Average82 °F65%29.95 "Hg
* Reported Aug 8 5:00 AM — Aug 23 5:00 AM, Sfax, Weather by CustomWeather, © 2014

Note: Actual official high and low records may vary slightly from our data, if they occured in-between our weather recording intervals... More about our weather records

Advertising

Sfax weather history for previous 24 hours

 ConditionsComfort  
Time TempWeatherWind HumidityBarometerVisibility
5:00 AM
Aug 23
75 °FPassing clouds.5 mph89%29.92 "Hg5 mi
4:00 AM77 °FPassing clouds.5 mph89%29.95 "Hg5 mi
12:00 AM81 °FPassing clouds.9 mph84%29.98 "HgN/A
11:00 PM
Aug 22
81 °FPassing clouds.9 mph84%29.98 "HgN/A
10:00 PM81 °FPassing clouds.9 mph84%29.95 "HgN/A
9:00 PM81 °FPassing clouds.10 mph84%29.95 "HgN/A
8:00 PM81 °FPassing clouds.10 mph84%29.95 "HgN/A
7:00 PM82 °FPassing clouds.12 mph79%29.92 "HgN/A
6:00 PM84 °FSunny.12 mph74%29.92 "Hg10 mi
5:00 PM86 °FSunny.12 mph70%29.92 "Hg10 mi
4:00 PM86 °FPassing clouds.13 mph66%29.92 "HgN/A
3:00 PM90 °FPassing clouds.10 mph59%29.92 "HgN/A
2:00 PM88 °FPassing clouds.12 mph62%29.95 "HgN/A
1:00 PM88 °FPassing clouds.13 mph62%29.95 "HgN/A
11:00 AM88 °FPassing clouds.9 mph55%29.98 "HgN/A
10:00 AM86 °FPassing clouds.10 mph62%29.98 "HgN/A
8:00 AM81 °FScattered clouds.12 mph74%29.95 "HgN/A
7:00 AM77 °FScattered clouds.9 mph79%29.95 "HgN/A
6:00 AM77 °FScattered clouds.10 mph79%29.92 "HgN/A
Weather by CustomWeather, © 2014

See weather overviewHow to use our weather pages